Погода в Кукморе

Россия / Республика Татарстан     56°11′11″N   50°53′38″E
темп.,
°C
ветер,
м/с
пор.,
м/с
влажн.,
%
обл.,
%
осадки,
мм/ч
давл.,
гПа
погр.,
м
8 мая, сб
сб800:00+11юз2575100 0.0 1015123
03:00+9зсз2393100 0.0 101666
06:00+10ссз2285100 0.0 1017271
09:00+11зсз1284100 0.5 1018364
12:00+12зсз2276100 0.1 1017511
15:00+14с116717 0.2 1017750
18:00+14ю01702 0.0 101516
21:00+10юв118299 0.0 101610
9 мая, вс
вс900:00+9юв2386100 0.0 101533
03:00+9юв338813 0.0 101545
06:00+12юв41075100 0.0 1014275
09:00+18ююв685213 0.0 1014717
12:00+21ю684130 0.0 10142350
15:00+22ю584046 0.0 10132398
18:00+19ююв3758100 0.0 1014149
21:00+15юв346682 0.0 101562
10 мая, пн
пн1000:00+13юв3670100 0.0 1015100
03:00+13в2273100 0.1 101733
06:00+14св1174100 0.1 101812
09:00+16з2371100 0.2 1020273
12:00+18ссз4367100 0.3 1021840
15:00+16ссз667298 0.3 1023782
18:00+11с5882100 0.0 1025400
21:00+9с4890100 0.0 1027406
11 мая, вт
вт1100:00+9с5992100 0.0 1028405
03:00+6с4994100 0.0 1029332
06:00+8ссв47838 0.0 1030340
09:00+14ссв44570 0.0 1030775
12:00+17ссв44414 0.0 10301180
15:00+19ссв44332 0.0 10301318
18:00+16св35475 0.0 1030105
21:00+11св22575 0.0 103112
12 мая, ср
ср1200:00+9св22655 0.0 103212
03:00+8всв22677 0.0 103211
06:00+11в24583 0.0 1032158
09:00+17в34395 0.0 1032822
12:00+20вюв343530 0.0 10311245
15:00+22в34375 0.0 10301359
18:00+19вюв245578 0.0 102984
21:00+14в226624 0.0 103011